Theta_e
324 323 322 321 322 322 322 322 322 321 319 316 315 313 314 314 313 313 313 314 312 311 310 308 311 313 311 313 314 315 315 314 313 314 313 312 316 315 317 316 315 316 317
325 324 324 323 323 322 322 321 318 314 312 312 312 312 312 313 313 313 311 311 310 308 307 308 310 311 309 313 313 311 309 309 311 312 311 310 310 314 313 315 314 314 313
325 325 324 323 322 321 318 314 313 314 313 311 309 308 308 309 312 311 310 309 307 306 307 308 308 309 309 311 311 309 307 306 306 307 308 308 308 310 311 312 312 312 310
325 324 323 321 319 316 315 314 313 313 310 308 308 308 309 309 310 309 308 306 306 305 305 307 308 308 310 309 309 307 306 305 305 305 306 307 309 309 309 311 312 311 310
323 322 319 316 313 314 313 313 311 309 309 307 308 308 308 308 308 307 306 304 303 305 304 305 305 308 307 306 304 304 304 305 303 304 306 306 306 306 306 307 309 309 309
321 319 317 314 314 313 311 309 307 305 305 306 308 308 307 306 306 305 304 302 303 304 303 303 304 306 306 305 304 303 301 302 303 305 305 303 303 303 305 306 307 307 306
318 317 315 314 311 309 307 305 304 306 307 307 307 308 307 306 306 304 302 301 302 301 300 301 301 304 305 302 302 300 301 302 304 303 300 301 303 305 305 306 307 307 306
316 314 312 309 307 307 306 305 306 306 307 307 306 306 306 306 304 302 301 300 300 299 299 302 303 304 302 301 301 301 301 301 301 301 301 302 304 306 305 306 307 306 307
311 310 308 308 307 306 305 306 306 305 304 305 306 304 303 302 302 301 300 299 299 299 299 302 302 302 303 302 301 301 302 301 301 300 301 302 302 305 304 304 305 306 307
309 308 307 306 306 305 305 307 306 304 301 303 305 304 300 301 301 300 299 299 299 301 301 300 300 301 302 302 302 302 301 301 301 300 300 301 302 302 301 302 304 306 306
308 306 306 306 305 305 305 305 302 300 301 300 302 300 300 299 300 299 299 298 298 300 300 300 301 301 300 300 299 299 299 300 300 300 301 301 301 302 301 301 302 302 305
307 306 306 306 305 303 304 303 300 299 299 298 299 300 300 299 298 298 298 298 299 299 299 301 301 298 297 297 298 299 299 298 298 298 299 301 301 301 300 301 301 301 302
306 306 305 305 304 304 303 302 300 300 299 299 299 299 299 299 298 298 299 299 299 299 300 300 300 296 295 296 296 297 298 298 298 299 299 300 301 301 300 300 301 301 301
307 306 305 304 303 304 304 303 302 301 300 299 298 298 298 298 298 299 299 300 300 300 300 300 297 296 296 295 296 296 297 296 296 297 298 298 298 299 300 301 301 301 301
307 306 305 304 304 305 304 303 303 303 302 300 299 296 298 298 298 297 298 298 299 300 301 299 296 296 296 296 295 296 296 296 295 295 296 296 296 297 298 298 299 300 300
307 306 305 304 305 305 304 304 304 303 302 301 300 299 296 297 297 296 296 296 298 299 299 298 297 297 296 296 296 296 296 295 294 293 294 295 295 295 296 297 297 298 299
306 305 305 305 305 304 305 304 304 304 303 301 300 300 297 295 295 296 297 297 299 298 298 298 298 297 297 297 296 295 295 293 293 292 291 293 293 294 295 295 296 298 299
306 304 304 304 304 304 304 304 304 304 302 302 303 302 299 297 297 299 299 299 299 298 298 298 297 297 297 297 296 295 294 293 293 292 290 290 291 292 293 294 296 298 299
305 304 304 304 305 302 302 305 305 304 303 304 302 300 298 297 298 299 299 299 298 298 297 297 297 297 296 296 296 295 294 293 292 292 291 290 289 289 291 292 295 296 295
304 305 305 304 303 302 304 302 301 301 301 302 301 300 298 298 298 299 299 298 298 298 298 297 297 297 297 296 296 295 295 294 292 291 290 290 289 289 290 291 293 295 295
305 305 304 303 302 302 303 301 301 302 302 302 301 299 298 298 299 299 299 298 299 299 298 298 298 298 297 297 296 296 295 294 293 291 289 289 289 289 289 291 293 294 295
305 306 306 306 304 303 303 302 301 302 301 300 300 300 298 298 298 299 299 299 299 299 299 298 298 298 298 297 297 296 296 295 294 291 289 288 288 289 289 291 293 294 295
305 305 305 305 305 305 302 302 302 302 302 301 301 300 300 299 299 299 299 299 299 299 299 299 299 299 299 298 298 297 296 296 294 293 291 289 289 289 291 292 292 293 294
305 305 304 304 304 303 303 302 302 302 302 301 301 301 300 300 299 300 300 299 299 299 299 299 299 299 299 299 298 298 297 296 295 294 292 291 290 291 291 291 292 293 293
305 305 303 303 303 304 304 302 302 302 302 302 302 301 301 300 300 300 300 300 300 299 299 300 299 299 299 299 299 298 297 296 295 294 293 293 290 291 291 291 291 291 292
305 303 301 302 303 303 303 303 303 303 302 302 303 301 301 301 301 301 300 300 300 300 300 300 300 300 299 299 299 299 298 297 296 296 295 293 292 290 289 290 290 291 292
Wind_Speed
22 19 16 14 12 12 9 7 4 3 8 10 11 12 13 14 15 14 15 12 14 17 19 21 21 20 22 20 17 13 11 11 4 9 18 21 20 26 20 18 16 15 15
21 20 18 16 14 14 12 7 5 8 9 11 13 14 14 13 13 13 12 13 15 18 21 22 20 17 19 15 14 15 15 14 10 9 14 21 22 21 22 21 19 18 18
25 22 19 17 19 13 11 8 9 9 11 12 13 14 15 15 11 10 10 11 13 17 19 19 19 20 16 14 12 14 18 19 17 11 13 19 20 21 21 21 22 22 21
26 22 23 20 16 14 10 10 8 8 9 10 11 12 14 12 9 11 13 15 15 16 16 16 17 17 12 12 12 16 18 20 21 17 16 18 17 19 17 22 26 23 26
24 26 22 19 15 13 9 8 7 7 9 10 11 10 9 8 9 12 14 15 16 14 15 16 16 11 13 10 12 15 17 17 20 21 18 14 17 19 20 20 22 25 24
26 24 20 16 13 10 11 9 8 9 8 8 8 8 8 9 9 10 13 14 14 14 16 16 15 12 12 13 14 16 15 16 19 15 9 16 18 23 20 21 23 20 4
25 23 19 17 18 14 10 9 9 10 9 9 8 6 5 7 7 11 12 14 13 15 19 18 13 10 13 16 18 17 16 14 11 14 18 20 19 21 21 21 22 22 18
25 24 23 20 17 12 9 9 8 8 8 8 8 8 6 6 9 11 14 14 14 16 18 15 14 11 12 19 19 18 17 16 16 16 17 19 18 17 11 16 17 18 20
25 26 22 18 15 10 9 9 9 8 9 8 7 8 9 8 6 10 13 13 16 18 14 12 12 14 15 19 17 19 21 21 19 18 21 18 13 11 13 15 14 11 8
28 22 17 14 13 11 9 8 8 7 8 6 5 6 8 7 6 9 11 13 18 17 14 15 14 15 17 17 19 21 22 23 21 21 20 14 13 13 16 12 11 11 7
25 21 17 15 12 9 10 8 7 7 10 12 8 5 6 7 6 10 8 14 14 15 17 19 16 19 22 20 18 20 16 14 14 16 17 14 17 15 17 14 11 9 10
24 21 17 15 11 11 10 10 9 10 10 10 6 4 3 6 11 10 10 11 11 13 15 16 19 21 18 17 18 20 18 18 19 19 20 17 17 17 18 16 13 12 9
21 19 16 14 12 10 11 6 7 6 5 6 6 6 6 7 10 12 13 13 13 14 14 14 17 13 17 16 15 17 20 22 24 23 22 22 16 17 20 19 16 15 13
19 19 17 15 12 9 9 3 6 4 2 0 4 5 5 7 11 14 14 15 16 17 18 16 11 14 18 21 18 20 23 24 25 26 25 25 24 21 21 15 17 18 16
15 17 19 15 11 9 7 7 7 6 7 5 0 4 3 5 8 11 14 17 18 20 17 12 8 14 19 23 21 22 26 24 25 25 25 24 25 25 25 26 22 14 11
17 15 17 16 12 9 8 6 8 8 9 9 6 4 4 4 6 9 12 16 18 10 11 10 7 10 14 17 21 23 25 21 23 24 22 23 24 24 24 27 26 20 13
18 14 17 16 12 7 8 6 8 9 11 12 12 10 9 7 8 10 12 12 8 8 11 10 8 10 13 12 16 19 19 19 22 23 21 19 22 23 24 24 26 21 15
17 16 13 10 9 7 9 12 13 13 12 9 12 13 8 10 9 9 4 3 4 6 7 7 8 10 12 12 14 15 14 17 21 22 21 19 20 20 22 26 24 16 17
16 13 12 9 7 7 9 10 10 12 6 7 7 8 4 5 2 2 1 1 1 1 5 6 6 8 10 11 11 13 15 17 19 20 19 18 20 18 19 21 20 11 13
16 11 13 11 10 7 6 5 6 1 1 10 10 10 3 2 0 1 3 3 2 2 2 4 4 7 10 10 9 11 17 20 20 20 19 18 19 16 15 16 19 15 12
14 11 12 8 7 5 7 7 4 3 5 12 10 10 7 5 4 4 6 7 5 5 5 4 3 6 8 9 9 11 13 18 19 18 18 18 18 18 14 13 16 15 14
12 7 12 14 9 5 12 7 6 5 7 8 7 10 13 11 9 7 10 8 8 8 8 7 5 4 6 7 9 10 10 16 19 19 18 18 17 16 14 14 18 19 18
10 6 3 5 12 15 17 11 8 10 10 13 10 9 13 13 11 12 11 12 11 12 12 12 11 9 8 9 10 9 9 12 15 17 19 18 17 14 12 16 19 19 19
12 11 8 7 7 8 16 14 8 11 12 15 15 12 12 12 12 13 15 14 16 15 16 17 17 15 14 13 14 14 11 10 13 15 17 19 16 11 13 17 18 18 21
15 13 13 13 11 11 10 14 13 12 12 13 13 14 14 14 14 16 17 16 17 20 20 21 22 19 19 19 19 18 14 11 10 13 15 17 15 13 13 15 16 20 20
15 13 15 13 15 18 13 11 12 12 11 12 13 17 16 14 16 17 19 20 21 23 24 23 24 24 22 21 24 24 20 15 10 11 12 16 17 15 15 16 17 19 18
Wind_Direction
180 177 173 169 167 169 164 151 124 54 20 12 9 10 9 7 1 355 355 0 1 356 355 352 351 354 349 346 345 350 5 6 310 326 349 353 6 5 9 13 19 22 24
183 180 178 179 182 161 148 123 67 57 44 29 24 22 15 7 357 353 357 356 358 1 356 351 350 352 350 350 357 1 7 12 4 330 336 354 358 352 357 358 2 4 6
182 185 188 167 158 141 117 85 80 51 38 28 22 16 4 358 352 0 6 0 1 0 354 350 345 346 344 347 354 1 357 356 358 351 331 341 347 351 351 344 348 350 354
183 174 153 142 132 113 94 78 54 44 37 22 21 11 3 11 9 6 360 356 357 356 346 351 354 352 353 349 343 351 351 349 348 345 344 336 345 348 352 349 337 342 342
147 141 133 125 109 109 99 79 76 48 30 18 14 17 21 23 12 1 358 358 356 357 358 356 354 345 342 354 356 350 346 343 344 341 338 351 344 347 345 334 330 329 332
139 137 138 129 128 116 117 97 61 34 19 21 30 20 28 13 8 4 358 358 1 0 1 353 357 347 347 350 350 343 339 341 338 338 343 337 327 324 326 324 315 313 323
142 141 140 139 133 124 107 80 57 42 28 32 31 11 1 3 4 2 7 358 353 351 353 352 339 339 345 344 340 338 343 350 356 345 333 329 324 324 326 321 308 296 289
142 141 142 139 131 121 102 74 52 33 28 35 31 21 11 15 7 1 355 348 349 351 358 4 4 346 351 351 344 344 348 346 343 341 343 335 330 338 346 347 333 305 298
140 139 140 135 127 108 78 71 55 58 41 26 23 28 34 15 357 353 349 348 348 348 354 359 3 358 344 341 338 333 332 339 344 341 338 342 343 346 345 342 353 359 331
140 136 134 126 114 96 86 82 71 51 30 40 38 65 23 18 349 343 343 350 352 359 6 3 357 351 348 348 337 332 329 330 333 337 341 342 339 350 353 349 345 335 358
139 134 134 133 112 99 105 97 83 59 70 57 82 55 28 19 5 343 350 349 350 350 354 356 7 7 1 9 20 22 12 17 12 6 10 357 351 345 347 346 348 332 314
143 136 130 132 124 119 121 127 87 75 65 54 56 28 24 18 6 11 7 11 7 354 353 354 6 22 36 29 32 32 38 28 18 9 5 349 348 350 357 359 348 341 326
142 134 137 139 137 137 148 143 119 90 71 35 18 15 18 10 8 12 14 18 17 10 5 360 4 27 19 13 19 27 31 31 25 19 12 7 339 337 345 352 357 4 11
149 151 155 149 143 152 163 165 194 179 169 152 8 18 15 10 16 16 14 13 10 7 5 9 27 21 25 24 26 32 34 33 28 22 20 24 20 20 16 357 339 352 351
162 165 171 159 161 174 195 220 240 257 247 222 235 350 321 342 360 3 360 359 356 348 348 4 21 21 24 25 26 29 27 30 26 21 20 19 18 18 18 17 9 352 353
173 174 177 174 174 185 208 234 257 270 259 242 251 287 280 289 333 342 344 345 357 20 29 29 33 23 19 21 19 17 22 30 23 17 15 16 13 11 12 18 19 6 356
172 174 164 172 186 200 219 239 252 259 255 239 245 247 273 282 296 321 331 339 15 31 49 50 44 25 20 21 14 17 26 24 14 13 13 14 12 14 15 8 10 18 29
167 166 174 185 193 238 271 270 272 266 279 269 253 238 261 286 310 332 323 359 33 49 43 38 31 22 20 19 16 17 18 7 7 9 12 15 12 10 13 13 18 49 61
164 176 193 207 232 268 289 288 267 261 287 229 209 207 286 309 330 16 294 309 71 69 27 18 11 10 11 15 17 13 7 3 2 3 7 10 10 6 5 17 20 27 33
179 194 210 225 243 249 274 173 179 186 76 191 204 207 233 226 310 342 233 224 235 277 318 348 349 1 7 6 5 3 4 3 359 360 360 2 4 5 1 6 7 1 347
193 205 212 225 226 250 233 213 232 247 286 203 220 211 210 214 231 256 237 238 253 273 258 292 333 357 360 2 352 347 348 360 2 359 357 357 358 356 358 1 3 360 349
194 248 232 237 246 265 208 215 202 228 203 213 217 227 230 245 253 255 239 250 258 266 262 264 291 317 347 340 331 330 332 352 1 2 360 355 354 354 354 356 357 357 350
199 218 225 251 267 264 225 236 249 246 257 239 237 243 234 244 256 245 251 257 259 262 264 258 265 289 291 293 298 311 308 335 356 2 358 355 350 350 355 353 349 346 343
212 225 238 260 303 262 214 233 249 237 243 242 248 250 234 251 261 265 259 268 262 263 264 263 263 277 284 274 278 279 286 311 343 356 357 351 346 344 344 345 345 342 335
215 231 244 252 279 292 271 244 251 252 257 249 250 238 243 253 263 272 263 268 275 263 265 266 265 269 276 271 272 271 268 285 323 346 352 348 339 329 329 335 336 330 327
220 228 229 251 273 276 264 262 247 241 245 251 267 235 250 262 266 269 266 272 273 271 268 266 270 265 274 271 263 262 255 263 287 321 341 344 332 323 322 324 325 327 330